[[{"header":{"parameterUnit":"m.s-1","parameterCategory":1,"la1":30.2991,"la2":30.254,"lo1":-89.0895,"lo2":-89.0444,"dy":0.0017,"dx":0.0017,"nx":28,"ny":28,"refTime":"2024-02-21T09:00:00:Z","depth":0,"parameterNumber":2,"parameterNumberName":"U-component_of_WINDS"},"data":[0,0,0,0,0,0,0,0,0,0,0,0,0,0,0,0,0,0,0,0,0,0,0,0,0,0,0,0,0,0,0,0,0,0,0,0,0,0,0,0,0,0,0,0,0,0,0,0,0,0,0,0,0,0,0,0,0,0,3.4244,3.4244,0,3.433,3.4331,3.4332,3.4309,3.4308,3.4306,3.4304,3.4397,3.4401,3.4405,0,0,0,0,0,0,0,0,0,0,0,0,0,3.4064,3.4068,3.4243,3.4244,3.4246,3.433,3.4331,3.4332,3.431,3.4307,3.4305,3.4303,3.4396,3.44,3.4405,0,0,0,0,0,0,0,0,0,0,0,0,0,3.4146,3.4069,3.4243,3.4244,3.4245,3.433,3.4331,3.4333,3.431,3.4307,3.4305,3.4302,3.4394,3.44,3.4406,3.4496,0,0,3.4425,3.4427,0,0,0,0,0,0,0,0,3.4141,3.4152,3.4243,3.4244,3.4246,3.4306,3.4302,3.4387,3.4311,3.4286,3.4304,3.4301,3.4369,3.4377,3.4399,3.45,3.4504,3.4425,3.4429,3.4432,3.4433,0,0,0,0,0,0,0,3.4136,3.4149,3.4278,3.4244,3.4246,3.4242,3.4251,3.4318,3.4341,3.4288,3.4286,3.4296,3.4369,3.4393,3.4401,3.4505,3.4425,3.4431,3.4434,3.4437,3.4688,3.4691,0,0,0,0,0,0,3.4128,3.4144,3.4275,3.428,3.4186,3.4248,3.4257,3.4289,3.434,3.4345,3.4299,3.4295,3.4384,3.4394,3.4404,3.4515,3.4432,3.4437,3.4441,3.4685,3.4689,3.4692,0,0,0,0,0,0,3.4124,3.414,3.4272,3.4212,3.4228,3.4254,3.429,3.4292,3.4316,3.4348,3.4353,3.4318,3.4382,3.4396,3.4474,3.4518,3.444,3.4446,3.4682,3.4686,3.4691,3.4735,0,0,0,0,0,0,3.4119,3.4139,3.4172,3.4213,3.4231,3.4338,3.4292,3.4296,3.4326,3.4323,3.4368,3.4373,3.4381,3.4465,3.448,3.4525,3.445,3.4678,3.4684,3.4689,3.473,3.4741,3.475,0,0,0,0,0,3.4113,3.4181,3.4173,3.4189,3.4273,3.434,3.4351,3.4358,3.433,3.4364,3.4386,3.4372,3.451,3.4473,3.449,3.4537,3.4675,3.4682,3.4689,3.4725,3.4739,3.475,0,0,0,0,0,0,3.4145,3.4186,3.4178,3.4261,3.4297,3.4336,3.4379,3.4371,3.4417,3.4411,3.4419,3.443,3.451,3.4531,3.4489,3.4629,3.4589,3.46,3.4611,3.4624,3.4634,3.4627,3.4455,0,0,0,0,0,3.4161,3.4211,3.4245,3.4315,3.4334,3.4354,3.4383,3.4385,3.4424,3.4439,3.4466,3.4505,3.4558,3.4592,3.4642,3.4733,3.4744,3.4774,3.4784,3.4792,3.4802,3.4854,3.4869,3.4714,3.4714,3.4714,0,0,3.4196,3.4225,3.4256,3.4322,3.435,3.4404,3.4366,3.4424,3.4464,3.4448,3.4523,3.4545,3.459,3.4675,3.4714,3.4695,3.4847,3.4801,3.4807,3.4812,3.4863,3.4877,3.489,3.4719,3.4718,3.4717,0,0,3.4287,3.4313,3.4375,3.4404,3.4448,3.4461,3.4476,3.4517,3.4531,3.4606,3.4596,3.4646,3.4735,3.4768,3.4796,3.4903,3.4894,3.492,3.4972,3.5023,3.5035,3.5046,3.5086,3.51,3.4929,3.4929,3.4929,0,3.4325,3.4403,3.4408,3.4467,3.4498,3.4486,3.4551,3.4579,3.4637,3.466,3.4638,3.4752,3.4781,3.4875,3.4902,3.4925,3.4944,3.4914,3.5033,3.5044,3.5054,3.5092,3.5107,3.4932,3.4931,3.4931,3.4931,0,3.4449,3.4504,3.4549,3.4605,3.4641,3.4703,3.4719,3.4756,3.4756,3.4772,3.4851,3.4886,3.4944,3.4967,3.4967,3.5063,3.505,3.503,3.4991,3.5072,3.5108,3.5123,3.4936,3.4935,3.4934,3.4933,0,0,3.456,3.462,3.4637,3.4663,3.4711,3.4755,3.4818,3.4874,3.4906,3.4947,3.5001,3.5079,3.5062,3.5095,3.5099,3.5144,3.523,3.512,3.5121,3.514,3.534,3.5354,3.5371,3.5223,3.5226,3.5228,3.5336,0,3.4656,3.4764,3.4772,3.4871,3.4924,3.4914,3.4969,3.5006,3.5024,3.5073,3.5094,3.5149,3.5122,3.5142,3.5186,3.521,3.527,3.5202,3.5276,3.5279,3.5265,3.5389,3.5404,3.5504,3.535,3.5353,3.5354,0,3.4782,3.4827,3.4931,3.4974,3.4997,3.5045,3.5099,3.5145,3.5188,3.5199,3.5236,3.5236,3.5303,3.5261,3.5355,3.5309,3.534,3.5357,3.5361,3.5369,3.5321,3.5401,3.5536,3.5551,3.5376,3.5375,3.5373,0,3.4855,3.4941,3.5015,3.5038,3.509,3.5125,3.5149,3.519,3.5224,3.5272,3.5294,3.535,3.538,3.5424,3.544,3.5407,3.5534,3.5493,3.5546,3.5546,3.5573,3.5571,3.5716,3.5592,3.5592,3.5592,3.5591,0,3.4961,3.5025,3.5049,3.5094,3.5167,3.5177,3.525,3.5272,3.5309,3.536,3.5356,3.5405,3.5422,3.5475,3.5488,3.5565,3.5579,3.5591,3.5593,3.5591,3.559,3.5612,3.5606,3.5596,3.5595,3.5594,3.5593,0,3.5054,3.5072,3.5152,3.5196,3.5209,3.5261,3.5299,3.5344,3.5362,3.5428,3.5444,3.5473,3.5535,3.5555,3.563,3.5639,3.573,3.5726,3.5715,3.5715,3.5768,3.5763,3.5932,3.5955,3.5816,3.5817,3.5818,0,3.5121,3.517,3.5219,3.5253,3.5278,3.5333,3.5368,3.5381,3.5418,3.5473,3.5512,3.5574,3.5623,3.5723,3.5752,3.5811,3.5809,3.5864,3.5818,3.5815,3.5812,3.5809,3.5815,3.5873,3.5875,3.5876,3.5877,0,3.5238,3.5245,3.5295,3.5349,3.5391,3.5435,3.5477,3.5505,3.5525,3.5568,3.5631,3.5669,3.5747,3.5809,3.5869,3.5895,3.5891,3.5891,3.5907,3.5905,3.5897,3.5904,3.5739,3.5887,3.5886,3.5885,3.5885,3.5884,3.5321,3.5365,3.5407,3.5464,3.5497,3.5537,3.5583,3.5607,3.5659,3.5722,3.5728,3.5797,3.5842,3.5922,3.5952,3.6008,3.5993,3.6015,3.6021,3.6026,3.6031,3.5888,3.6019,3.6019,3.6019,3.6018,3.6018,0,3.5439,3.5466,3.5518,3.5577,3.5623,3.5613,3.5661,3.57,3.576,3.5802,3.5852,3.5926,3.5987,3.6022,3.6083,3.6121,3.6121,3.6137,3.6135,3.6142,3.604,3.6021,3.6137,3.6137,3.6137,3.6137,3.6137,3.6136,3.5505,3.558,3.5593,3.5686,3.5714,3.578,3.5808,3.5847,3.5881,3.5963,3.6014,3.6036,3.6076,3.6141,3.6197,3.6206,3.623,3.6248,3.6256,3.616,3.6148,3.6137,3.6119,3.6253,3.6253,3.6352,3.6353,3.6354]},{"header":{"parameterUnit":"m.s-1","parameterCategory":1,"la1":30.2991,"la2":30.254,"lo1":-89.0895,"lo2":-89.0444,"dy":0.0017,"dx":0.0017,"nx":28,"ny":28,"refTime":"2024-02-21T09:00:00:Z","depth":0,"parameterNumber":3,"parameterNumberName":"V-component_of_WINDS"},"data":[0,0,0,0,0,0,0,0,0,0,0,0,0,0,0,0,0,0,0,0,0,0,0,0,0,0,0,0,0,0,0,0,0,0,0,0,0,0,0,0,0,0,0,0,0,0,0,0,0,0,0,0,0,0,0,0,0,0,2.0993,2.0994,0,2.109,2.1091,2.1092,2.1103,2.1102,2.1101,2.11,2.1201,2.1204,2.1208,0,0,0,0,0,0,0,0,0,0,0,0,0,2.0819,2.0822,2.0993,2.0995,2.0996,2.109,2.1091,2.1093,2.1103,2.1102,2.1101,2.11,2.12,2.1204,2.1208,0,0,0,0,0,0,0,0,0,0,0,0,0,2.0903,2.0823,2.0993,2.1012,2.1015,2.109,2.1091,2.1093,2.1104,2.1102,2.1101,2.1099,2.1198,2.1203,2.1209,2.1271,0,0,2.1225,2.1228,0,0,0,0,0,0,0,0,2.0898,2.0909,2.1008,2.1011,2.1014,2.1083,2.1067,2.1153,2.1104,2.107,2.11,2.1099,2.1163,2.1171,2.1193,2.1276,2.128,2.1226,2.1229,2.1231,2.1233,0,0,0,0,0,0,0,2.0892,2.0905,2.1032,2.101,2.1014,2.1017,2.1027,2.1083,2.1124,2.1073,2.1074,2.1085,2.1164,2.1187,2.1195,2.1282,2.1226,2.123,2.1234,2.1236,2.1421,2.1423,0,0,0,0,0,0,2.0883,2.09,2.1029,2.1035,2.0952,2.1021,2.1033,2.1063,2.1123,2.1131,2.1086,2.1085,2.1179,2.1189,2.1199,2.1276,2.1231,2.1236,2.1239,2.1419,2.1421,2.1423,0,0,0,0,0,0,2.0879,2.0894,2.1025,2.0968,2.0985,2.1025,2.1059,2.1065,2.1088,2.1133,2.114,2.1102,2.1178,2.1191,2.1253,2.128,2.1239,2.1244,2.1417,2.142,2.1422,2.1431,0,0,0,0,0,0,2.0874,2.0893,2.0917,2.0968,2.0988,2.1077,2.1061,2.1068,2.1097,2.1097,2.115,2.1158,2.1178,2.1245,2.1258,2.1286,2.1248,2.1415,2.1419,2.1422,2.1429,2.1434,2.1438,0,0,0,0,0,2.0868,2.0916,2.0918,2.0933,2.1018,2.1079,2.109,2.1112,2.1099,2.1124,2.1153,2.1156,2.1274,2.1251,2.1266,2.1297,2.1414,2.1418,2.1421,2.1427,2.1433,2.1438,0,0,0,0,0,0,2.0867,2.0923,2.0926,2.0992,2.103,2.1081,2.1113,2.1118,2.1161,2.1159,2.1185,2.1197,2.1258,2.1283,2.1257,2.136,2.1343,2.135,2.1342,2.1348,2.1353,2.1346,2.1252,0,0,0,0,0,2.0874,2.0918,2.0965,2.1018,2.1038,2.1072,2.1099,2.1112,2.1154,2.117,2.1203,2.1244,2.129,2.132,2.1365,2.1432,2.1444,2.146,2.1465,2.1468,2.1475,2.1513,2.152,2.1436,2.1436,2.1436,0,0,2.089,2.0926,2.0952,2.1019,2.1051,2.1096,2.1085,2.1134,2.1168,2.1178,2.1239,2.1264,2.1311,2.1375,2.1406,2.1398,2.15,2.1473,2.1476,2.148,2.1517,2.1525,2.1532,2.1439,2.1438,2.1438,0,0,2.0943,2.0974,2.1022,2.1054,2.1102,2.1124,2.1135,2.1185,2.1202,2.1263,2.1271,2.1312,2.1391,2.1424,2.1451,2.1515,2.152,2.1529,2.1554,2.1591,2.1597,2.1603,2.1627,2.1636,2.1535,2.1535,2.1535,0,2.0957,2.1026,2.1047,2.1095,2.1125,2.1134,2.1184,2.1214,2.1274,2.1294,2.1284,2.1384,2.1416,2.1489,2.1504,2.1525,2.154,2.1524,2.1595,2.1601,2.1607,2.163,2.1639,2.1536,2.1536,2.1536,2.1535,0,2.1041,2.1088,2.1122,2.1179,2.1212,2.1261,2.129,2.132,2.1331,2.1354,2.1416,2.1454,2.1508,2.1525,2.1536,2.16,2.1594,2.1589,2.1573,2.1616,2.1638,2.1647,2.1537,2.1537,2.1536,2.1536,0,0,2.1098,2.1165,2.1177,2.1204,2.1256,2.1294,2.1343,2.1394,2.1421,2.1461,2.1504,2.1569,2.1565,2.1596,2.161,2.1642,2.1691,2.1633,2.1635,2.1644,2.1765,2.177,2.178,2.1694,2.1696,2.1697,2.1762,0,2.1158,2.1245,2.1265,2.1341,2.1385,2.1395,2.1437,2.1474,2.1497,2.1538,2.1563,2.161,2.16,2.1619,2.165,2.1679,2.1716,2.1674,2.1735,2.1736,2.1724,2.1791,2.1796,2.1855,2.177,2.1772,2.1773,0,2.124,2.1282,2.1362,2.1409,2.1428,2.1466,2.1515,2.1554,2.1596,2.161,2.1644,2.1655,2.1706,2.1685,2.1757,2.1728,2.1754,2.1771,2.1774,2.1782,2.1759,2.1802,2.1875,2.1884,2.1787,2.1785,2.1784,0,2.1275,2.1351,2.1409,2.1431,2.1487,2.1514,2.1538,2.1579,2.1608,2.1651,2.167,2.1718,2.1745,2.1781,2.1805,2.1788,2.1875,2.1856,2.1889,2.1889,2.1909,2.1908,2.1988,2.1923,2.1922,2.1922,2.1922,0,2.134,2.1389,2.1426,2.1461,2.1516,2.1538,2.1592,2.1617,2.1653,2.1694,2.1704,2.1742,2.177,2.1812,2.183,2.1888,2.1899,2.1913,2.1917,2.1913,2.1911,2.1931,2.1929,2.1925,2.1924,2.1924,2.1923,0,2.139,2.1416,2.148,2.1527,2.154,2.1578,2.1619,2.1654,2.1676,2.1728,2.1741,2.1776,2.1826,2.1853,2.1915,2.1927,2.1992,2.1994,2.1978,2.198,2.2012,2.2009,2.211,2.2125,2.2048,2.2048,2.2049,0,2.1431,2.1469,2.152,2.1548,2.1573,2.1617,2.1648,2.167,2.1701,2.1752,2.1781,2.1831,2.1873,2.1953,2.1984,2.2032,2.2035,2.2067,2.2043,2.2037,2.2038,2.2036,2.204,2.2072,2.2073,2.2073,2.2074,0,2.1502,2.1512,2.1555,2.1603,2.1638,2.1677,2.1715,2.1737,2.1766,2.1801,2.1852,2.1884,2.1948,2.1998,2.2048,2.2073,2.2079,2.2081,2.2091,2.2088,2.2078,2.2085,2.1991,2.2079,2.2079,2.2078,2.2078,2.2078,2.1549,2.1583,2.1625,2.1672,2.1703,2.1738,2.1774,2.18,2.1843,2.1896,2.1907,2.1961,2.2002,2.207,2.2096,2.2139,2.2133,2.2148,2.2152,2.2155,2.2157,2.207,2.2148,2.2148,2.2148,2.2148,2.2148,0,2.1622,2.1648,2.1692,2.1745,2.1782,2.1783,2.1825,2.1856,2.1904,2.1941,2.1982,2.204,2.2089,2.2123,2.2172,2.22,2.2204,2.2212,2.2212,2.2218,2.216,2.2146,2.2209,2.2209,2.2209,2.2209,2.2209,2.2208,2.1664,2.1722,2.1738,2.1811,2.1838,2.1891,2.1915,2.1947,2.1977,2.2042,2.2083,2.2104,2.2141,2.2193,2.2237,2.2246,2.2264,2.2273,2.2282,2.2228,2.2222,2.2215,2.2203,2.2276,2.2276,2.2337,2.2337,2.2338]}]]